Ellensburg, WA

7:40 PM PDT on September 20, 2017 (GMT -0700)
Bowers

Weather History for KELN - January, 2013

Change the Weather History Date:

Sunday, January 6, 2013

  Actual Average (KYKM) Record (KYKM)
Temperature  
Mean Temperature 26 °F -  
Max Temperature 28 °F 34 °F 59 °F (2009)
Min Temperature 24 °F 17 °F -13 °F (1982)
Degree Days  
Heating Degree Days 39    
Moisture  
Dew Point 22 °F    
Average Humidity 80    
Maximum Humidity 85    
Minimum Humidity 74    
Precipitation  
Precipitation 0.00 in - - ()
Sea Level Pressure  
Sea Level Pressure 30.14 in    
Wind  
Wind Speed 0 mph (SW)    
Max Wind Speed 5 mph    
Max Gust Speed -    
Visibility 2 miles    
Events Fog    
Averages and records for this station are not official NWS values.
T = Trace of Precipitation, MM = Missing Value Source: NWS Daily Summary

Daily Weather History Graph

Daily Weather History Graph

Search for Another Location

Airport or City:

Trip Planner

Search our weather history database for the weather conditions in past years. The results will help you decide how hot, cold, wet, or windy it might be!

Date:

Astronomy

Jan. 06, 2013 Rise Set
Actual Time 7:47 AM PST 4:29 PM PST
Civil Twilight 7:12 AM PST 5:04 PM PST
Nautical Twilight 6:34 AM PST 5:42 PM PST
Astronomical Twilight 5:57 AM PST 6:19 PM PST
Moon 1:59 AM PST (1/6) 12:06 PM PST (1/6)
Length of Visible Light 9h 51m
Length of Day
8h 41m
Waning Crescent, 32% of the Moon is Illuminated
Jan 6
Waning Crescent
Jan 11
New
Jan 18
First Quarter
Jan 26
Full
Feb 3
Last Quarter

Hourly Weather History & Observations

Time (PST) Temp. Windchill Dew Point Humidity Pressure Visibility Wind Dir Wind Speed Gust Speed Precip Events Conditions
12:20 AM 28.4 °F - 23.0 °F 80% 30.16 in 2.5 mi Calm Calm - N/A   Haze
12:53 AM 28.0 °F - 23.0 °F 81% 30.21 in 2.0 mi Calm Calm - N/A   Haze
1:15 AM 28.4 °F - 23.0 °F 80% 30.14 in 2.0 mi Calm Calm - N/A   Haze
1:53 AM 28.0 °F - 21.9 °F 78% 30.21 in 2.5 mi Calm Calm - N/A   Haze
2:02 AM 28.4 °F - 23.0 °F 80% 30.15 in 3.0 mi Calm Calm - N/A   Haze
2:53 AM 28.0 °F - 23.0 °F 81% 30.20 in 3.0 mi Calm Calm - N/A   Haze
3:53 AM 28.0 °F - 23.0 °F 81% 30.20 in 3.0 mi Calm Calm - N/A   Haze
4:10 AM 28.4 °F - 23.0 °F 80% 30.13 in 2.5 mi Calm Calm - N/A   Haze
4:53 AM 27.0 °F - 23.0 °F 85% 30.19 in 2.5 mi Calm Calm - N/A   Overcast
5:06 AM 28.4 °F - 23.0 °F 80% 30.12 in 2.5 mi Calm Calm - N/A   Haze
5:27 AM 28.4 °F - 23.0 °F 80% 30.12 in 3.0 mi Calm Calm - N/A   Haze
5:50 AM 28.4 °F - 23.0 °F 80% 30.12 in 2.5 mi Calm Calm - N/A   Haze
5:53 AM 28.0 °F - 23.0 °F 81% 30.18 in 2.5 mi Calm Calm - N/A   Haze
6:06 AM 26.6 °F - 21.2 °F 80% 30.12 in 5.0 mi Calm Calm - N/A   Haze
6:53 AM 25.0 °F - 19.9 °F 81% 30.20 in 5.0 mi Calm Calm - N/A   Haze
7:53 AM 26.1 °F - 19.9 °F 78% 30.20 in 5.0 mi Calm Calm - N/A   Haze
8:19 AM 24.8 °F - 19.4 °F 80% 30.14 in 2.5 mi Calm Calm - N/A   Haze
8:53 AM 26.1 °F - 19.9 °F 78% 30.22 in 2.0 mi Calm Calm - N/A   Haze
9:02 AM 26.6 °F - 21.2 °F 80% 30.17 in 1.5 mi Calm Calm - N/A   Haze
9:25 AM 26.6 °F 22.6 °F 21.2 °F 80% 30.17 in 1.0 mi SW 3.5 mph - N/A   Overcast
9:36 AM 26.6 °F - 21.2 °F 80% 30.17 in 0.5 mi Calm Calm - N/A Fog Light Freezing Fog
10:53 AM 27.0 °F - 21.9 °F 81% 30.23 in 0.8 mi Calm Calm - N/A   Haze
11:53 AM 28.0 °F - 23.0 °F 81% 30.20 in 0.8 mi Calm Calm - N/A   Haze
12:04 PM 26.6 °F 21.2 °F 21.2 °F 80% 30.13 in 1.2 mi South 4.6 mph - N/A   Haze
12:43 PM 28.4 °F - 21.2 °F 74% 30.11 in 1.0 mi Calm Calm - N/A   Haze
12:50 PM 28.4 °F - 21.2 °F 74% 30.11 in 0.5 mi Calm Calm - N/A   Haze
12:53 PM 28.0 °F 24.2 °F 21.9 °F 78% 30.17 in 0.5 mi West 3.5 mph - N/A   Haze
1:53 PM 28.0 °F - 23.0 °F 81% 30.16 in 0.8 mi Calm Calm - N/A   Haze
2:06 PM 28.4 °F - 23.0 °F 80% 30.09 in 1.0 mi Calm Calm - N/A   Haze
2:15 PM 28.4 °F - 23.0 °F 80% 30.09 in 1.5 mi Calm Calm - N/A   Haze
2:22 PM 28.4 °F - 23.0 °F 80% 30.09 in 3.0 mi Calm Calm - N/A   Haze
2:32 PM 28.4 °F - 23.0 °F 80% 30.09 in 2.5 mi Calm Calm - N/A   Haze
2:53 PM 28.0 °F - 23.0 °F 81% 30.16 in 3.0 mi North - - N/A   Haze
3:43 PM 28.4 °F - 23.0 °F 80% 30.08 in 2.5 mi North - - N/A   Haze
3:53 PM 28.0 °F - 23.0 °F 81% 30.14 in 2.5 mi Calm Calm - N/A   Haze
4:39 PM 28.4 °F - 23.0 °F 80% 30.08 in 1.8 mi Calm Calm - N/A   Haze
4:48 PM 28.4 °F - 23.0 °F 80% 30.07 in 2.5 mi Calm Calm - N/A   Haze
4:53 PM 27.0 °F - 23.0 °F 85% 30.13 in 2.5 mi Calm Calm - N/A   Overcast
5:29 PM 28.4 °F - 23.0 °F 80% 30.07 in 3.0 mi Calm Calm - N/A   Haze
5:53 PM 28.0 °F - 21.9 °F 78% 30.13 in 3.0 mi Calm Calm - N/A   Haze
6:08 PM 28.4 °F - 21.2 °F 74% 30.07 in 1.8 mi Calm Calm - N/A   Haze
6:44 PM 26.6 °F - 21.2 °F 80% 30.06 in 0.8 mi Calm Calm - N/A   Haze
6:53 PM 27.0 °F - 23.0 °F 85% 30.13 in 0.5 mi Calm Calm - N/A Fog Light Freezing Fog
7:53 PM 27.0 °F - 21.9 °F 81% 30.12 in 0.5 mi Calm Calm - N/A   Haze
8:53 PM 27.0 °F - 21.9 °F 81% 30.12 in 0.2 mi Calm Calm - N/A   Haze
9:53 PM 27.0 °F 23.0 °F 21.9 °F 81% 30.11 in 0.2 mi West 3.5 mph - N/A   Haze
10:53 PM 26.1 °F - 21.9 °F 84% 30.10 in 0.5 mi Calm Calm - N/A Fog Light Freezing Fog
11:33 PM 26.6 °F - 21.2 °F 80% 30.02 in 1.2 mi Calm Calm - N/A   Haze
11:53 PM 27.0 °F 23.0 °F 21.9 °F 81% 30.07 in 1.0 mi ENE 3.5 mph - N/A   Haze